Location: Asheville, NC
(35.6000°N, 82.5500°W)
Time: 03:03:13
(UTC-04:00)

Vanguard 2 Rocket - Pass Details

Date: 17 March 2018
Orbit: 553 x 3328 km, 32.9° (Epoch: 19 June)

Event Time Altitude Azimuth Distance (km) Brightness Sun altitude
Rises 19:09:34 0° 265° (W) 2,715 12.5 5.2°
Reaches altitude 10° 19:11:40 10° 262° (W) 1,826 11.4 4.8°
Maximum altitude 19:15:33 63° 181° (S) 687 6.5 4.0°
Drops below altitude 10° 19:20:36 10° 100° (E) 2,358 8.4 3.0°
Sets 19:23:39 0° 98° (E) 3,612 9.3 2.4°
